CZ-6A DEB, 60213

Orbit data source: Space-Track

CZ-6A DEB, 60213 is space debris in SSO originally from a launch on Thu, 04 Jul 2024 UTC launched from the Taiyaun Space Center, China (TSC). Debris objects in space refer to the collection of defunct objects orbiting the Earth. Examples of debris include non-operational satellites, rocket bodies, and fragments generated from explosions, collisions, or faulty payload assembly.

Loading next visibility...
Identifier
60213, 2024-126C
Orbit
SSO
Country
Flag of CNCN / PRC
Related business
Manufacturer
SAST
Mission
Spacecraft
Bus & Motor
Unknown
Mass
~50 kg wet, ~50 kg dry
Launch date (UTC)
2024-07-04 (1 year ago)
Launch vehicle
Unknown
Launch site
Taiyaun Space Center, China (TSC)
Object type
Payload
Rocket body
Debris
Shape & HBR
Unknown
Radar Cross Section
Large (>1 m²)

Expand to show TLE details & history
Last TLE update: 15 hours ago

TLE from 15 hours ago
0 CZ-6A DEB
1 60213U 24126C   25257.58273206  .00009695  00000-0  74514-3 0  9994
2 60213  97.8383 269.1500 0006911 129.0731 231.1109 15.01922128 65240
Epoch: 2025-09-14T13:59Z
TLE epoch observation values (Epoch: 2025-09-14T13:59:08.049Z)
Latitude
-0.00004°
Longitude
65.5668°
Altitude
567.036 km
Speed
7.576 km/s
True Right ascension
17h 56m 36s
True Declination
0° 00' 00"
Sunlit
Object was in daylight at epoch
Visualization orbit readout
Latitude
Unknown
Longitude
Unknown
Altitude
Unknown
Speed
Unknown
Apparent Right ascension
Unknown
Apparent Declination
Unknown
Sunlit
N/A
Visualization observer readout
Local Sidereal Time
22:00:51
Azimuth
Unknown
Elevation
Unknown
Doppler factor
Unknown
Orbital elements
Apogee altitude
562.772 km
Perigee altitude
553.185 km
Semi-major axis
6,936.116 km
Eccentricity
0.00069
Inclination
97.8383°
RAAN
269.15°
Arg. of periapsis
129.0731°
True anomaly
231.04929°
Mean anomaly
231.1109°
Eccentric anomaly
231.08009°
Mean motion
3.75724 °/min
Orbital period
95.82 mins
BSTAR
0.00074514
Loading maneuver chart data...
Computing Atmospheric mass density...
Loading historical data...
Loading historical data...
Loading historical data...
Loading historical data...
Loading historical data...
Loading historical data...
Loading historical data...
Other satellites on launch #126 in the year 2024 (2024-07-04 UTC)

Documentation

Showing up to 5 results
|